Location: Obersdorf
(47.4079°N, 10.2781°E)
Time: 11:49:04
(UTC+01:00)

XW-2C - Pass Details

Date: 04 December 2021
Orbit: 503 x 523 km, 97.5° (Epoch: 15 January)

Event Time Altitude Azimuth Distance (km) Brightness Sun altitude
Rises 06:18:54 0° 14° (NNE) 2,669 ? -14.6°
Reaches altitude 10° 06:21:01 10° 16° (NNE) 1,776 ? -14.3°
Maximum altitude 06:24:51 73° 102° (ESE) 554 ? -13.6°
Drops below altitude 10° 06:28:39 10° 188° (S) 1,760 ? -13.0°
Sets 06:30:44 0° 190° (S) 2,642 ? -12.7°
